FW4383 Weather Reports


Display with metric or nautical units.
time (UTC)temp
F
wind
direction
speed
MPH
gust
MPH
rain 1hr
in
rain 24hr
in
rain mn
in
humidity
%
barometer
mb
20260903004648 59 315 0.0 0.0 0.04 0.11 0.10 90 1010.3
20260903001534 60 321 0.0 3.0 0.02 0.09 0.08 89 1010.2
20260903000143 60 358 0.0 2.0 0.02 0.08 0.07 89 1010.1
20260902234535 61 349 1.0 4.0 0.01 0.07 0.07 88 1010.2
20260902233107 61 307 2.0 4.0 0.01 0.07 0.07 88 1010.2
20260902231534 61 8 0.0 4.0 0.02 0.07 0.06 90 1010.4
20260902230106 60 337 1.0 4.0 0.01 0.06 0.06 90 1010.3
20260902224606 59 355 1.0 4.0 0.02 0.06 0.06 90 1010.3
20260902221533 60 337 2.0 7.0 0.03 0.05 0.05 89 1010.2
20260902214533 60 336 2.0 4.0 0.03 0.04 0.03 88 1010.0
20260902211535 61 328 2.0 5.0 0.02 0.02 0.02 86 1010.0
20260902210034 61 7 1.0 4.0 0.02 0.02 0.01 84 1010.0
20260902203035 62 331 1.0 4.0 0.01 0.01 0.00 81 1010.2
20260902200032 63 353 1.0 4.0 0.00 0.00 0.00 78 1010.2
20260902194535 64 334 2.0 4.0 0.00 0.00 0.00 75 1010.1
20260902193037 64 248 0.0 3.0 0.00 0.00 0.00 71 1010.0
20260902191536 65 259 1.0 4.0 0.00 0.00 0.00 70 1009.9
20260902190035 65 36 0.0 3.0 0.00 0.00 0.00 69 1009.7
20260902184535 65 67 0.0 2.0 0.00 0.00 0.00 68 1009.7
20260902183037 65 40 1.0 4.0 0.00 0.00 0.00 68 1009.7
20260902181532 65 17 2.0 5.0 0.00 0.00 0.00 68 1009.7
20260902180036 66 357 1.0 4.0 0.00 0.00 0.00 66 1009.8
20260902174535 65 337 3.0 7.0 0.00 0.00 0.00 68 1009.9
20260902173037 64 332 3.0 6.0 0.00 0.00 0.00 69 1010.0
20260902171535 63 282 2.0 5.0 0.00 0.00 0.00 68 1010.2
20260902170036 64 272 2.0 4.0 0.00 0.00 0.00 66 1010.4
20260902164534 65 187 0.0 2.0 0.00 0.00 0.00 66 1010.5
20260902163030 65 86 1.0 5.0 0.00 0.00 0.00 70 1010.6
20260902161536 63 160 2.0 5.0 0.00 0.00 0.00 72 1011.0
20260902160035 63 151 1.0 6.0 0.00 0.00 0.00 71 1011.1
20260902154534 62 164 0.0 3.0 0.00 0.00 0.00 73 1011.3
20260902153034 60 183 1.0 4.0 0.00 0.00 0.00 74 1011.4
20260902151536 60 161 2.0 5.0 0.00 0.00 0.00 75 1011.6
20260902150034 60 250 1.0 5.0 0.00 0.00 0.00 75 1011.6
20260902144536 59 284 2.0 7.0 0.00 0.00 0.00 77 1011.7
20260902143152 59 254 2.0 8.0 0.00 0.00 0.00 77 1011.9
20260902140036 57 177 1.0 6.0 0.00 0.00 0.00 77 1012.0
20260902134644 59 160 3.0 6.0 0.00 0.00 0.00 74 1012.1
20260902133038 59 255 2.0 10.0 0.00 0.00 0.00 73 1012.1
20260902131538 59 275 5.0 11.0 0.00 0.00 0.00 73 1012.1
20260902124538 59 270 3.0 9.0 0.00 0.00 0.00 72 1012.1
20260902123035 59 272 4.0 11.0 0.00 0.00 0.00 72 1012.2
20260902121535 59 257 4.0 10.0 0.00 0.00 0.00 72 1012.2
20260902120141 60 276 3.0 11.0 0.00 0.00 0.00 72 1012.3
20260902114535 60 266 5.0 10.0 0.00 0.00 0.00 71 1012.5
20260902113033 60 266 4.0 11.0 0.00 0.00 0.00 71 1012.5
20260902104535 60 252 5.0 15.0 0.00 0.00 0.00 72 1012.6
20260902103108 60 277 5.0 12.0 0.00 0.00 0.00 74 1012.7
20260902101536 61 278 7.0 15.0 0.00 0.00 0.00 74 1012.6
20260902100036 61 271 7.0 14.0 0.00 0.00 0.00 74 1012.7
20260902094647 60 273 6.0 14.0 0.00 0.00 0.00 74 1012.7
20260902093031 60 271 5.0 11.0 0.00 0.00 0.00 74 1012.9
20260902084605 60 260 6.0 15.0 0.00 0.00 0.00 75 1012.9
20260902083035 60 268 8.0 17.0 0.00 0.00 0.00 75 1012.9
20260902080032 60 268 7.0 16.0 0.00 0.00 0.00 75 1013.0
20260902073031 61 273 7.0 17.0 0.00 0.00 0.00 75 1013.2
20260902071611 61 268 9.0 18.0 0.00 0.00 0.00 73 1013.3
20260902070035 62 266 10.0 19.0 0.00 0.00 0.00 71 1013.5
20260902064533 62 269 10.0 21.0 0.00 0.00 0.00 71 1013.6
20260902063149 62 273 9.0 18.0 0.00 0.00 0.00 71 1013.6
20260902061610 63 267 8.0 18.0 0.00 0.00 0.00 70 1013.7
20260902060036 63 270 9.0 21.0 0.00 0.00 0.00 70 1013.8
20260902054535 63 269 9.0 17.0 0.00 0.00 0.00 69 1013.7
20260902053036 63 269 9.0 18.0 0.00 0.00 0.00 68 1013.8
20260902051535 63 272 10.0 24.0 0.00 0.00 0.00 68 1013.6
20260902050035 64 273 11.0 22.0 0.00 0.00 0.00 67 1013.3
20260902044532 64 268 10.0 22.0 0.00 0.00 0.00 66 1013.2
20260902041536 64 262 9.0 19.0 0.00 0.00 0.00 65 1013.0
20260902040035 64 277 7.0 17.0 0.00 0.00 0.00 64 1012.9
20260902034531 65 264 8.0 18.0 0.00 0.00 0.00 64 1012.7
20260902033034 65 274 7.0 15.0 0.00 0.00 0.00 65 1012.6
20260902031533 65 271 8.0 17.0 0.00 0.00 0.00 65 1012.5
20260902030031 65 267 10.0 22.0 0.00 0.00 0.00 66 1012.6
20260902021537 65 261 8.0 18.0 0.00 0.00 0.00 63 1012.4
20260902020035 66 266 8.0 15.0 0.00 0.00 0.00 62 1012.3
20260902014535 67 262 10.0 21.0 0.00 0.00 0.00 60 1012.3
20260902013038 67 258 9.0 21.0 0.00 0.00 0.00 59 1012.2
20260902011535 68 258 10.0 21.0 0.00 0.00 0.00 58 1012.1
20260902010035 69 259 8.0 20.0 0.00 0.00 0.00 57 1012.0